Location: ??????????
(41.2581°N, 22.8006°E)
Time: 04:44:04
(UTC+00:00)

GEOS 3 Rocket - Pass Details

Date: 14 March 2026
Orbit: 767 x 846 km, 115.0° (Epoch: 17 April)

Event Time Altitude Azimuth Distance (km) Brightness Sun altitude
Rises 01:53:58 0° 40° (NE) 3,412 7.8 -31.5°
Reaches altitude 10° 01:56:23 10° 46° (NE) 2,471 6.9 -31.1°
Maximum altitude 02:01:37 49° 121° (ESE) 1,069 4.3 -30.2°
Enters shadow 02:01:51 49° 130° (SE) 1,074 4.3 -30.2°
